User: anonymous   Login
Location: Unspecified
(0.0000°N, 0.0000°E)
Time: 05:47:46
(UTC+00:00)
Language:

S-56A Canister/Altair - Orbit

View from above orbital plane
View from above orbital plane
View from above satellite
View from above satellite

Ground track
Ground track

The orbit data is extracted from the following two-line orbital elements,

1    82U 61004B   19167.69493110  .00000016  00000-0  59944-4 0  9990
2    82  38.8548 116.3961 1174538 113.4934 259.3462 12.26037671762796
Epoch (UTC): 16 June 2019 16:40:42
Eccentricity: 0.1174538
inclination: 38.8548°
perigee height: 633 km
apogee height: 2499 km
right ascension of ascending node: 116.3961°
argument of perigee: 113.4934°
revolutions per day: 12.26037671
mean anomaly at epoch: 259.3462°
orbit number at epoch: 76279

The dashed part of the orbit path shows where the satellite is in the earth's shadow,  

DLR